Location: Lalanga
(4.5882°N, 32.9072°E)
Time: 15:02:00
(UTC+00:00)

LightSail 2 - Visible Passes

Search period start: 09 April 2020 00:00
Search period end: 19 April 2020 00:00
Orbit: 694 x 724 km, 24.0° (Epoch: 08 April)

Date Brightness Start Highest point End Pass type
(mag) Time Alt. Az. Time Alt. Az. Time Alt. Az.
13 Apr 7.6 03:18:30 10° NNW 03:20:59 14° NNE 03:23:28 10° NE visible
13 Apr 6.9 17:27:10 10° SSW 17:29:34 19° S 17:29:34 19° S visible
14 Apr 7.7 02:20:11 10° N 02:21:23 11° NNE 02:22:35 10° NNE visible
14 Apr 7.0 16:28:42 10° SSW 16:31:41 15° SSE 16:34:20 11° SE visible
14 Apr 7.5 18:12:09 10° SW 18:13:14 16° SW 18:13:14 16° SW visible
15 Apr 7.3 03:04:18 10° NNW 03:07:58 20° NNE 03:11:36 10° ENE visible
15 Apr 5.8 17:13:03 10° SW 17:17:51 37° SSE 17:18:03 37° SSE visible
16 Apr 7.5 02:05:31 10° NNW 02:08:25 15° NNE 02:11:18 10° NE visible
16 Apr 6.4 16:14:08 10° SSW 16:18:25 25° SSE 16:22:42 10° E visible
16 Apr 6.3 17:58:39 10° WSW 18:01:50 38° WSW 18:01:50 38° WSW visible
17 Apr 7.9 01:09:49 11° NNE 01:09:49 11° NNE 01:10:41 10° NE visible
17 Apr 6.7 02:50:20 10° NW 02:54:47 30° NNE 02:59:12 10° E visible
17 Apr 5.1 16:59:18 10° SW 17:04:28 65° SSE 17:06:44 33° E visible
17 Apr 8.1 18:45:15 10° W 18:45:39 12° W 18:45:39 12° W visible
18 Apr 7.0 01:53:20 18° NNW 01:55:17 22° NNE 01:59:12 10° ENE visible
18 Apr 5.8 17:45:27 10° W 17:50:29 49° NNW 17:50:33 49° NNW visible
